GFSNIL_prec_precacc24_072.txt.gz
Total_Precipitation_Accumulation
0.00 0.00 0.00 0.00 0.00 0.00 0.00 0.00 0.03 0.08 0.10 0.10 0.07 0.11 0.16 0.18 0.19 0.24 0.29 0.29 0.28 0.25
0.00 0.00 0.00 0.00 0.00 0.00 0.00 0.00 0.02 0.03 0.09 0.12 0.09 0.09 0.09 0.10 0.10 0.11 0.13 0.15 0.17 0.17
0.00 0.00 0.00 0.00 0.00 0.02 0.07 0.08 0.04 0.03 0.02 0.05 0.05 0.04 0.05 0.05 0.07 0.08 0.07 0.06 0.06 0.06
0.00 0.01 0.01 0.02 0.05 0.04 0.13 0.18 0.17 0.17 0.11 0.06 0.07 0.08 0.08 0.05 0.06 0.06 0.06 0.08 0.10 0.10
0.03 0.01 0.02 0.04 0.09 0.22 0.22 0.18 0.17 0.23 0.22 0.20 0.15 0.15 0.14 0.13 0.12 0.12 0.11 0.11 0.12 0.10
0.12 0.09 0.04 0.03 0.09 0.15 0.17 0.13 0.11 0.14 0.18 0.21 0.20 0.20 0.18 0.16 0.14 0.12 0.11 0.12 0.14 0.15
0.04 0.08 0.10 0.08 0.11 0.08 0.04 0.03 0.02 0.06 0.11 0.13 0.13 0.10 0.10 0.11 0.16 0.16 0.18 0.21 0.24 0.23
0.06 0.06 0.09 0.12 0.13 0.12 0.09 0.13 0.13 0.12 0.13 0.08 0.05 0.04 0.07 0.09 0.11 0.16 0.21 0.23 0.24 0.23
0.05 0.06 0.07 0.08 0.09 0.12 0.16 0.20 0.28 0.27 0.26 0.22 0.21 0.18 0.15 0.16 0.12 0.12 0.11 0.09 0.07 0.10
0.08 0.08 0.06 0.11 0.11 0.11 0.17 0.21 0.18 0.15 0.22 0.28 0.28 0.30 0.20 0.16 0.10 0.08 0.08 0.08 0.08 0.08
0.08 0.09 0.09 0.09 0.10 0.14 0.21 0.16 0.16 0.13 0.20 0.21 0.19 0.26 0.21 0.19 0.10 0.07 0.08 0.09 0.12 0.13
0.03 0.07 0.13 0.11 0.09 0.09 0.13 0.16 0.14 0.13 0.14 0.13 0.17 0.27 0.19 0.18 0.07 0.11 0.14 0.13 0.16 0.25
0.05 0.07 0.10 0.15 0.14 0.16 0.15 0.17 0.15 0.12 0.09 0.15 0.11 0.27 0.20 0.17 0.06 0.11 0.18 0.22 0.30 0.62
0.08 0.06 0.07 0.08 0.08 0.11 0.17 0.18 0.15 0.14 0.13 0.14 0.19 0.23 0.28 0.21 0.09 0.10 0.25 0.31 0.36 0.47

GFSNIL_prec_precacc24_075.txt.gz
Total_Precipitation_Accumulation
0.00 0.00 0.00 0.00 0.00 0.00 0.00 0.00 0.01 0.03 0.04 0.04 0.04 0.07 0.13 0.16 0.20 0.27 0.32 0.31 0.29 0.25
0.00 0.00 0.00 0.00 0.00 0.00 0.00 0.00 0.00 0.00 0.01 0.03 0.06 0.08 0.09 0.11 0.12 0.13 0.15 0.16 0.17 0.17
0.00 0.00 0.00 0.00 0.00 0.00 0.00 0.00 0.00 0.00 0.00 0.01 0.03 0.04 0.06 0.05 0.07 0.09 0.08 0.07 0.06 0.06
0.00 0.01 0.01 0.00 0.00 0.00 0.00 0.01 0.01 0.03 0.04 0.02 0.04 0.06 0.07 0.05 0.06 0.06 0.06 0.08 0.10 0.10
0.01 0.00 0.01 0.00 0.00 0.00 0.01 0.01 0.01 0.04 0.10 0.10 0.08 0.09 0.12 0.12 0.12 0.11 0.11 0.11 0.12 0.10
0.06 0.05 0.01 0.00 0.00 0.00 0.01 0.02 0.01 0.06 0.09 0.11 0.13 0.16 0.17 0.16 0.14 0.12 0.11 0.11 0.13 0.13
0.02 0.06 0.08 0.06 0.03 0.03 0.02 0.02 0.01 0.01 0.01 0.05 0.09 0.09 0.08 0.10 0.16 0.16 0.18 0.21 0.23 0.21
0.03 0.05 0.05 0.07 0.11 0.11 0.07 0.07 0.08 0.10 0.09 0.06 0.03 0.03 0.05 0.08 0.11 0.16 0.20 0.22 0.23 0.23
0.02 0.03 0.05 0.04 0.06 0.07 0.09 0.12 0.19 0.16 0.19 0.17 0.16 0.15 0.14 0.16 0.12 0.11 0.11 0.09 0.07 0.10
0.05 0.03 0.02 0.06 0.07 0.07 0.12 0.15 0.12 0.11 0.18 0.25 0.27 0.29 0.19 0.16 0.10 0.08 0.08 0.08 0.08 0.08
0.05 0.05 0.02 0.02 0.06 0.10 0.13 0.12 0.13 0.13 0.23 0.23 0.23 0.31 0.25 0.23 0.11 0.07 0.08 0.10 0.12 0.14
0.01 0.04 0.10 0.07 0.05 0.06 0.12 0.15 0.15 0.18 0.16 0.16 0.22 0.34 0.21 0.22 0.09 0.12 0.15 0.14 0.19 0.26
0.03 0.02 0.05 0.09 0.09 0.13 0.14 0.15 0.15 0.14 0.12 0.21 0.14 0.34 0.22 0.17 0.06 0.16 0.28 0.32 0.39 0.78
0.07 0.04 0.05 0.07 0.07 0.10 0.16 0.17 0.15 0.15 0.16 0.18 0.25 0.30 0.35 0.24 0.12 0.19 0.45 0.53 0.52 0.59

GFSNIL_prec_precacc24_078.txt.gz
Total_Precipitation_Accumulation
0.00 0.00 0.00 0.00 0.00 0.00 0.01 0.03 0.15 0.24 0.22 0.15 0.11 0.10 0.16 0.18 0.15 0.18 0.26 0.31 0.31 0.26
0.00 0.00 0.00 0.00 0.00 0.00 0.00 0.01 0.02 0.04 0.09 0.15 0.14 0.12 0.09 0.10 0.10 0.13 0.15 0.18 0.22 0.22
0.01 0.00 0.00 0.00 0.00 0.00 0.00 0.00 0.00 0.00 0.00 0.02 0.01 0.02 0.04 0.05 0.07 0.14 0.10 0.08 0.08 0.09
0.00 0.01 0.01 0.00 0.00 0.00 0.00 0.00 0.00 0.00 0.00 0.00 0.00 0.00 0.02 0.02 0.03 0.04 0.06 0.10 0.12 0.11
0.00 0.00 0.01 0.00 0.00 0.00 0.00 0.00 0.00 0.00 0.00 0.00 0.01 0.01 0.02 0.05 0.06 0.07 0.09 0.11 0.12 0.10
0.00 0.00 0.00 0.00 0.00 0.00 0.00 0.00 0.00 0.00 0.00 0.00 0.02 0.05 0.05 0.04 0.06 0.09 0.10 0.11 0.12 0.12
0.00 0.00 0.00 0.02 0.02 0.00 0.00 0.00 0.00 0.00 0.00 0.00 0.00 0.01 0.02 0.04 0.10 0.14 0.16 0.19 0.22 0.20
0.05 0.05 0.02 0.02 0.01 0.02 0.01 0.01 0.01 0.00 0.01 0.01 0.01 0.00 0.02 0.03 0.07 0.13 0.17 0.21 0.22 0.22
0.03 0.04 0.04 0.04 0.02 0.01 0.03 0.06 0.04 0.04 0.05 0.07 0.07 0.10 0.11 0.12 0.10 0.09 0.08 0.07 0.06 0.07
0.05 0.02 0.02 0.03 0.04 0.04 0.05 0.05 0.06 0.09 0.10 0.12 0.16 0.23 0.16 0.12 0.09 0.06 0.06 0.05 0.06 0.07
0.05 0.05 0.02 0.00 0.00 0.01 0.03 0.04 0.07 0.11 0.20 0.19 0.28 0.31 0.21 0.21 0.12 0.07 0.08 0.10 0.15 0.17
0.01 0.04 0.09 0.04 0.01 0.01 0.04 0.07 0.11 0.17 0.16 0.16 0.24 0.35 0.19 0.21 0.09 0.14 0.21 0.24 0.31 0.33
0.02 0.01 0.04 0.06 0.06 0.10 0.10 0.12 0.13 0.12 0.09 0.20 0.13 0.35 0.22 0.18 0.07 0.20 0.45 0.48 0.52 0.92
0.06 0.04 0.04 0.06 0.06 0.09 0.14 0.14 0.11 0.11 0.13 0.16 0.25 0.30 0.36 0.25 0.13 0.20 0.52 0.64 0.64 0.72

GFSNIL_prec_precacc24_081.txt.gz
Total_Precipitation_Accumulation
0.00 0.00 0.00 0.00 0.00 0.00 0.01 0.04 0.18 0.38 0.36 0.21 0.12 0.12 0.18 0.18 0.16 0.17 0.22 0.24 0.20 0.13
0.00 0.00 0.00 0.00 0.00 0.00 0.01 0.01 0.07 0.12 0.38 0.46 0.30 0.16 0.12 0.12 0.10 0.09 0.09 0.12 0.15 0.17
0.01 0.00 0.00 0.00 0.00 0.00 0.00 0.00 0.01 0.05 0.05 0.17 0.20 0.15 0.10 0.07 0.06 0.10 0.07 0.07 0.11 0.12
0.01 0.01 0.01 0.00 0.00 0.00 0.00 0.00 0.00 0.00 0.01 0.01 0.01 0.02 0.02 0.03 0.06 0.06 0.05 0.10 0.14 0.13
0.00 0.01 0.01 0.00 0.00 0.00 0.00 0.00 0.00 0.00 0.00 0.00 0.00 0.00 0.00 0.01 0.03 0.03 0.03 0.07 0.13 0.12
0.00 0.00 0.00 0.00 0.00 0.00 0.00 0.00 0.00 0.00 0.00 0.00 0.00 0.00 0.00 0.00 0.01 0.02 0.03 0.06 0.07 0.08
0.01 0.01 0.00 0.00 0.00 0.00 0.00 0.00 0.00 0.00 0.00 0.00 0.00 0.00 0.00 0.00 0.01 0.05 0.07 0.09 0.11 0.15
0.05 0.05 0.02 0.02 0.00 0.00 0.00 0.00 0.00 0.00 0.00 0.00 0.00 0.00 0.00 0.00 0.00 0.01 0.04 0.08 0.15 0.20
0.03 0.04 0.04 0.04 0.02 0.03 0.03 0.03 0.01 0.01 0.00 0.00 0.01 0.02 0.01 0.01 0.01 0.02 0.03 0.03 0.03 0.05
0.05 0.03 0.02 0.03 0.04 0.06 0.06 0.05 0.04 0.06 0.06 0.08 0.10 0.13 0.05 0.05 0.05 0.05 0.05 0.05 0.05 0.06
0.05 0.05 0.02 0.00 0.00 0.01 0.03 0.04 0.07 0.10 0.15 0.14 0.24 0.25 0.14 0.16 0.10 0.07 0.08 0.14 0.18 0.18
0.01 0.03 0.08 0.04 0.01 0.01 0.02 0.03 0.06 0.12 0.12 0.12 0.20 0.31 0.15 0.18 0.08 0.13 0.21 0.26 0.33 0.35
0.00 0.00 0.03 0.05 0.05 0.08 0.08 0.09 0.10 0.09 0.07 0.16 0.11 0.32 0.20 0.16 0.07 0.17 0.43 0.48 0.54 0.99
0.00 0.00 0.01 0.03 0.05 0.07 0.13 0.13 0.10 0.10 0.11 0.13 0.21 0.26 0.31 0.22 0.12 0.18 0.49 0.61 0.62 0.73